Location: Unspecified
(0.0000°N, 0.0000°E)
Time: 03:58:10
(UTC+00:00)

STARLINK-35347 - Visible Passes

Search period start: 14 February 2026 00:00
Search period end: 24 February 2026 00:00
Orbit: 474 x 476 km, 53.2° (Epoch: 11 February)

Date Brightness Start Highest point End Pass type
(mag) Time Alt. Az. Time Alt. Az. Time Alt. Az.
19 Feb 4.6 20:01:40 10° SSW 20:02:48 19° SSW 20:02:48 19° SSW visible
20 Feb 2.9 19:31:43 10° SSW 19:34:47 41° SSE 19:34:47 41° SSE visible
21 Feb 3.1 19:01:45 10° S 19:05:08 34° SE 19:06:49 22° ENE visible
22 Feb 3.5 18:31:49 10° S 18:34:57 26° SE 18:38:04 10° ENE visible
22 Feb 5.3 20:11:15 10° WNW 20:12:36 12° NW 20:13:02 11° NW visible
23 Feb 5.1 19:40:12 10° W 19:42:21 15° NW 19:44:29 10° NNW visible
